Regional Weather Roundup
Issued by NWS Boston, MA

Home | Current Version | Previous Version | Text Only | Print | Product List | Glossary On
Versions: 1 2 3 4 5 6 7 8 9 10 11 12 13 14 15 16 17 18 19 20 21 22 23 24 25 26 27 28 29 30 31 32 33 34 35 36 37 38 39 40 41 42 43 44 45 46 47 48 49 50
000
ASUS41 KBOX 291210
RWRBOX

REGIONAL WEATHER ROUNDUP
NATIONAL WEATHER SERVICE TAUNTON MA
800 AM EDT SUN MAR 29 2015

NOTE:  "FAIR" INDICATES FEW OR NO CLOUDS BELOW 12,000 FEET WITH NO
SIGNIFICANT WEATHER AND/OR OBSTRUCTIONS TO VISIBILITY.  THE FOLLOWING
OBSERVATION LOCATIONS DO NOT REPORT PRESENT WEATHER...PROVINCETOWN...
SMITHFIELD...BLOCK ISLAND...KEENE...AND OXFORD.

MAZALL-291300-
EASTERN MASSACHUSETTS

CITY           SKY/WX    TMP DP  RH WIND       PRES   REMARKS
BOSTON         MOSUNNY   27   7  42 NW12      30.18R WCI  17
6HR MIN TEMP:  26; 6HR MAX TEMP:  28;

BEVERLY        MOSUNNY   25   7  46 NW9       30.17R WCI  15
LAWRENCE       SUNNY     24   6  46 NW7       30.19R WCI  16
BEDFORD        SUNNY     24   8  50 NW8       30.18R WCI  15
BLUE HILL        N/A     22  10  60 NW10      30.13R WCI  11
NORWOOD        CLOUDY    27   9  46 NW6       30.18R WCI  20
MARSHFIELD     CLOUDY    30  18  59 N9        30.18R WCI  22
PLYMOUTH       CLOUDY    26  18  71 NW7       30.16R WCI  18
TAUNTON        CLOUDY    26  16  65 NW5       30.16R WCI  20
NEW BEDFORD    CLOUDY    25  17  72 NW6       30.16R WCI  18
$$

MAZALL-291300-
CAPE COD AND THE ISLANDS

CITY           SKY/WX    TMP DP  RH WIND       PRES   REMARKS
FALMOUTH       PTSUNNY   27  19  74 N7        30.14R WCI  19
HYANNIS        PTSUNNY   32  22  66 N12       30.12R WCI  23
CHATHAM        PTSUNNY   31  21  66 N3        30.14R
PROVINCETOWN   CLOUDY    32  16  51 N14G20    30.15R WCI  22
NANTUCKET      PTSUNNY   33  24  69 N18       30.12R WCI  22
MARTHAS VNYRD  CLOUDY    27  13  55 N13       30.14R WCI  16
$$

MAZALL-291300-
CENTRAL AND WESTERN MASSACHUSETTS

CITY           SKY/WX    TMP DP  RH WIND       PRES   REMARKS
WORCESTER      SUNNY     22   3  44 NW9       30.13R WCI  12
6HR MIN TEMP:  19; 6HR MAX TEMP:  22;

FITCHBURG      SUNNY     25   6  44 NW9       30.18R WCI  15
ORANGE         SUNNY     17  10  74 CALM      30.18R
SPRINGFIELD    SUNNY     24   8  49 N5        30.20R WCI  18
WESTFIELD      SUNNY     25   8  48 CALM      30.20R
NORTH ADAMS    SUNNY     13   7  77 CALM      30.22R
PITTSFIELD     SUNNY     18   2  49 CALM      30.16R
$$

RIZALL-291300-
RHODE ISLAND

CITY           SKY/WX    TMP DP  RH WIND       PRES   REMARKS
PROVIDENCE     PTSUNNY   26  12  55 N9        30.18R WCI  17
6HR MIN TEMP:  24; 6HR MAX TEMP:  27; 6HR PCP: TRACE;

NEWPORT        PTSUNNY   25  12  58 N9        30.16R WCI  15
BLOCK ISLAND   CLOUDY    27  16  63 N10G20    30.15R WCI  17
SMITHFIELD     PTSUNNY   23  10  58 NW8       30.15R WCI  14
WESTERLY       CLOUDY    24  15  68 N12       30.18R WCI  13
$$

CTZALL-291300-
CONNECTICUT

CITY           SKY/WX    TMP DP  RH WIND       PRES   REMARKS
BRADLEY INTL   MOSUNNY   26   5  40 N9        30.21R WCI  17
6HR MIN TEMP:  24; 6HR MAX TEMP:  28;

HARTFORD       PTSUNNY   26   6  42 N9        30.23R WCI  17
BRIDGEPORT     CLOUDY    26   8  46 NW9       30.23R WCI  17
DANBURY        SUNNY     24   1  36 NW8       30.23R WCI  15
GROTON         CLOUDY    26  10  50 N12       30.19R WCI  16
NEW HAVEN      CLOUDY    26   8  46 NW6       30.22R WCI  19
CHESTER        CLOUDY    27  12  54 N9        30.19R WCI  17
MERIDEN        PTSUNNY   25   7  46 NW7       30.22R WCI  17
WILLIMANTIC    CLOUDY    24   7  48 N9        30.20R WCI  14
OXFORD         MOSUNNY   21   1  42 N7        30.19R WCI  13
$$

MEZ002-015-021-024-NHZ003-005-008-011-012-014-VTZ005-008-291300-
NORTHERN NEW ENGLAND

CITY           SKY/WX    TMP DP  RH WIND       PRES   REMARKS
PORTLAND ME    SUNNY     27   8  44 W5        30.16R WCI  22
6HR MIN TEMP:  22; 6HR MAX TEMP:  28;

BANGOR ME      SUNNY     22   5  48 NW6       30.11R WCI  14
CONCORD NH     SUNNY     23   7  50 NW5       30.17R WCI  17
MANCHESTER NH  SUNNY     24   7  48 N6        30.16R WCI  17
NASHUA NH      SUNNY     24   5  44 NW7       30.19R WCI  16
PORTSMOUTH NH  MOSUNNY   24   7  48 W6        30.16R WCI  17
JAFFREY NH     SUNNY     16   5  62 VRB3      30.14R
KEENE NH       SUNNY     16  10  79 CALM      30.19R
BURLINGTON VT  SUNNY     17  10  74 CALM      30.21R
MT. WASHINGTON SUNNY      0 -24  32 NW39        N/A  WCI -29
$$

NYZ052-076-291300-
EASTERN NEW YORK

CITY           SKY/WX    TMP DP  RH WIND       PRES   REMARKS
ALBANY         SUNNY     14   7  73 CALM      30.26R
6HR MIN TEMP:  11; 6HR MAX TEMP:  20;

NEW YORK CITY  PTSUNNY   28   8  43 NW15      30.26R WCI  16
6HR MIN TEMP:  27; 6HR MAX TEMP:  28;

$$

ANZALL-291300-
MARINE OBSERVATIONS

STATION/POSITION TIME  TEMP    WIND        PRES    VSBY  WAVE
                       AIR SEA DIR/SP/G                  HT/PER
                 (UTC) (F)     (DEG/KT/KT) (MB)    (MI)  (FT/S)
BOSTON BUOY      1150   28 36  340/ 14/ 16 1021.4R         6/ 8
BUZZARDS BAY     1100          350/ 18/ 19 1020.5R
NANTUCKET SOUND  1150   33 36  350/ 16/ 17 1019.8R         3/ 4
MASS BAY-STELLWA 1104   28 37  330/ 14/ 16   N/A    1 7/8  7/11
ISLE OF SHOALS   1100   25     320/ 11/ 13 1020.2R
S OF BLOCK IS    1108      37                N/A           6/11
$$

......................KEY.........................
  SKY/WX - SKY CONDITION/PRESENT WEATHER
  TMP    - TEMPERATURE IN FAHRENHEIT
  DWPT   - DEWPOINT IN FAHRENHEIT
  RH     - RELATIVE HUMIDITY IN PERCENT
  WIND   - DIRECTION AND SPEED IN MPH
  PRES   - MEAN SEA LEVEL PRESSURE IN INCHES OF HG
  WCI    - WIND CHILL INDEX
  VSB    - VISIBILITY IN MILES
  HX     - HEAT INDEX
  TC     - TEMPERATURE IN CELSIUS
  VRB    - VARIABLE WIND DIRECTION
  N/A    - NOT AVAILABLE



USA.gov is the U.S. government's official web portal to all federal, state and local government web resources and services.